Gunnison, CO

1:06 PM MDT on September 18, 2019 (GMT -0600)
Gunnison County

Weather History for KGUC - July, 2019

Change the Weather History Date:

Thursday, July 11, 2019

  Actual Average Record
Temperature  
Mean Temperature 63 °F -  
Max Temperature 82 °F 77 °F 89 °F (2003)
Min Temperature 44 °F 44 °F 39 °F (2003)
Degree Days  
Heating Degree Days 2    
Growing Degree Days 13 (Base 50)    
Moisture  
Dew Point 37 °F    
Average Humidity 39    
Maximum Humidity 82    
Minimum Humidity 16    
Precipitation  
Precipitation 0.00 in - - ()
Sea Level Pressure  
Sea Level Pressure 30.23 in    
Wind  
Wind Speed 5 mph (North)    
Max Wind Speed 31 mph    
Max Gust Speed 43 mph    
Visibility 10 miles    
Events Thunderstorm    
Averages and records for this station are not official NWS values.
T = Trace of Precipitation, MM = Missing Value Source: NWS Daily Summary

Daily Weather History Graph

Daily Weather History Graph

Search for Another Location

Airport or City:

Astronomy

Jul. 11, 2019 Rise Set
Actual Time 5:52 AM MDT 8:33 PM MDT
Civil Twilight 5:21 AM MDT 9:04 PM MDT
Nautical Twilight 4:42 AM MDT 9:43 PM MDT
Astronomical Twilight 3:58 AM MDT 10:26 PM MDT
Moon 3:51 PM MDT (7/11) 2:02 AM MDT (7/11)
Length of Visible Light 15h 42m
Length of Day
14h 40m
Waxing Gibbous, 74% of the Moon is Illuminated
Jul 11
Waxing Gibbous
Jul 16
Full
Jul 24
Last Quarter
Jul 31
New
Aug 7
First Quarter

Hourly Weather History & Observations

Time (MDT) Temp. Windchill Dew Point Humidity Pressure Visibility Wind Dir Wind Speed Gust Speed Precip Events Conditions
12:56 AM 54.0 °F - 37.0 °F 53% 30.25 in 10.0 mi Calm Calm - N/A   Clear
1:56 AM 53.1 °F - 36.0 °F 52% 30.25 in 10.0 mi NNE 5.8 mph - N/A   Clear
2:56 AM 51.1 °F - 36.0 °F 56% 30.26 in 10.0 mi Calm Calm - N/A   Clear
3:56 AM 50.0 °F - 36.0 °F 59% 30.26 in 10.0 mi Calm Calm - N/A   Clear
4:56 AM 45.0 °F - 39.9 °F 82% 30.28 in 10.0 mi Calm Calm - N/A   Clear
5:56 AM 44.1 °F 41.5 °F 37.0 °F 76% 30.31 in 10.0 mi East 4.6 mph - N/A   Clear
6:56 AM 46.9 °F - 37.0 °F 68% 30.31 in 10.0 mi North 5.8 mph - N/A   Clear
7:56 AM 52.0 °F - 37.0 °F 57% 30.30 in 10.0 mi NE 4.6 mph - N/A   Clear
8:56 AM 60.1 °F - 39.0 °F 46% 30.29 in 10.0 mi Calm Calm - N/A   Clear
9:56 AM 64.9 °F - 39.9 °F 40% 30.28 in 10.0 mi Variable 3.5 mph - N/A   Clear
10:56 AM 71.1 °F - 42.1 °F 35% 30.25 in 10.0 mi Variable 5.8 mph - N/A   Clear
11:56 AM 75.9 °F - 44.1 °F 32% 30.21 in 10.0 mi Variable 3.5 mph - N/A   Clear
12:56 PM 80.1 °F - 36.0 °F 20% 30.19 in 10.0 mi Variable 4.6 mph - N/A   Clear
1:56 PM 82.0 °F - 32.0 °F 16% 30.15 in 10.0 mi WSW 3.5 mph - N/A   Clear
2:56 PM 82.9 °F - 34.0 °F 17% 30.13 in 10.0 mi North 10.4 mph - N/A   Partly Cloudy
3:56 PM 81.0 °F - 35.1 °F 19% 30.12 in 10.0 mi Variable 4.6 mph - N/A   Partly Cloudy
4:14 PM 80.6 °F - 35.6 °F 20% 30.38 in 9.0 mi NNW 18.4 mph 23.0 mph N/A Thunderstorm Clear
4:18 PM 78.8 °F - 33.8 °F 20% 30.38 in 9.0 mi North 15.0 mph 23.0 mph N/A Thunderstorm Clear
4:56 PM 75.9 °F - 37.9 °F 25% 30.16 in 10.0 mi SSE 18.4 mph 23.0 mph N/A   Mostly Cloudy
5:56 PM 75.9 °F - 36.0 °F 23% 30.19 in 10.0 mi NNE 11.5 mph - N/A   Mostly Cloudy
6:21 PM 75.2 °F - 35.6 °F 24% 30.37 in 10.0 mi NNE 31.1 mph 42.6 mph N/A   Overcast
6:56 PM 73.9 °F - 36.0 °F 25% 30.17 in 10.0 mi NNW 10.4 mph - N/A   Clear
7:56 PM 73.9 °F - 36.0 °F 25% 30.17 in 10.0 mi NNE 13.8 mph 21.9 mph N/A   Mostly Cloudy
8:56 PM 68.0 °F - 37.9 °F 33% 30.15 in 10.0 mi NNW 9.2 mph - N/A   Clear
9:56 PM 61.0 °F - 39.9 °F 46% 30.19 in 10.0 mi NW 4.6 mph - N/A   Clear
10:56 PM 60.1 °F - 39.9 °F 47% 30.17 in 10.0 mi NNE 5.8 mph - N/A   Clear
11:56 PM 57.9 °F - 39.0 °F 49% 30.17 in 10.0 mi North 8.1 mph - N/A   Clear